• en Belgique
  • Liste des pays
  • À 7 jours
  • Température de l'eau
  • Carte satellitaire
  • Carte météo
  • Widgets météo
  • user-avatar
    Se connecter

    Météo par heure à Polotsk

    Ce jour, 23 Mai, Mercredi

    Heure Température Précipitation Vent Pression Humidité
    00:00 +9°C° 0 mm 2 m/s 752 mmHg 94%
    01:00 +9°C° 0 mm 2 m/s 752 mmHg 94%
    02:00 +9°C° 0 mm 2 m/s 752 mmHg 95%
    03:00 +9°C° 0 mm 2 m/s 752 mmHg 94%
    04:00 +9°C° 0 mm 2 m/s 752 mmHg 94%
    05:00 +10°C° 0 mm 2 m/s 752 mmHg 94%
    06:00 +13°C° 0 mm 2 m/s 752 mmHg 88%
    07:00 +15°C° 0 mm 2 m/s 752 mmHg 82%
    08:00 +17°C° 0 mm 2 m/s 752 mmHg 75%
    09:00 +18°C° 0,4 mm 3 m/s 752 mmHg 73%
    10:00 +19°C° 0,4 mm 3 m/s 752 mmHg 70%
    11:00 +20°C° 0,4 mm 3 m/s 752 mmHg 68%
    12:00 +20°C° 1,3 mm 3 m/s 752 mmHg 68%
    13:00 +21°C° 1,3 mm 2 m/s 751 mmHg 69%
    14:00 +21°C° 1,3 mm 2 m/s 751 mmHg 69%
    15:00 +21°C° 1,3 mm 2 m/s 751 mmHg 70%
    16:00 +20°C° 1,3 mm 2 m/s 751 mmHg 71%
    17:00 +20°C° 1,3 mm 2 m/s 751 mmHg 72%
    18:00 +18°C° 0,3 mm 2 m/s 751 mmHg 78%
    19:00 +17°C° 0,3 mm 2 m/s 751 mmHg 83%
    20:00 +15°C° 0,3 mm 2 m/s 751 mmHg 89%
    21:00 +15°C° 0,2 mm 2 m/s 751 mmHg 90%
    22:00 +14°C° 0,2 mm 2 m/s 751 mmHg 92%
    23:00 +13°C° 0,2 mm 2 m/s 751 mmHg 94%

    Demain, 24 Mai, Jeudi

    Heure Température Précipitation Vent Pression Humidité
    00:00 +13°C° 0,1 mm 2 m/s 752 mmHg 95%
    01:00 +11°C° 0,1 mm 3 m/s 752 mmHg 95%
    02:00 +11°C° 0,1 mm 3 m/s 752 mmHg 95%
    03:00 +11°C° 0 mm 3 m/s 752 mmHg 95%
    04:00 +11°C° 0 mm 3 m/s 752 mmHg 94%
    05:00 +11°C° 0 mm 3 m/s 752 mmHg 94%
    06:00 +13°C° 0 mm 3 m/s 752 mmHg 88%
    07:00 +14°C° 0 mm 4 m/s 752 mmHg 83%
    08:00 +17°C° 0 mm 4 m/s 752 mmHg 77%
    09:00 +18°C° 0,1 mm 4 m/s 752 mmHg 71%
    10:00 +20°C° 0,1 mm 5 m/s 752 mmHg 65%
    11:00 +21°C° 0,1 mm 5 m/s 752 mmHg 59%
    12:00 +21°C° 1 mm 5 m/s 752 mmHg 61%
    13:00 +21°C° 1 mm 5 m/s 752 mmHg 64%
    14:00 +21°C° 1 mm 5 m/s 752 mmHg 66%
    15:00 +21°C° 0,9 mm 4 m/s 752 mmHg 68%
    16:00 +21°C° 0,9 mm 4 m/s 752 mmHg 70%
    17:00 +20°C° 0,9 mm 4 m/s 752 mmHg 72%
    18:00 +19°C° 0,6 mm 4 m/s 752 mmHg 76%
    19:00 +18°C° 0,6 mm 4 m/s 752 mmHg 80%
    20:00 +17°C° 0,6 mm 3 m/s 752 mmHg 84%
    21:00 +16°C° 0 mm 3 m/s 752 mmHg 86%
    22:00 +14°C° 0 mm 3 m/s 752 mmHg 88%
    23:00 +14°C° 0 mm 3 m/s 753 mmHg 90%

    Après-demain, 25 Mai, Vendredi

    Heure Température Précipitation Vent Pression Humidité
    00:00 +13°C° 0 mm 3 m/s 753 mmHg 91%
    01:00 +13°C° 0 mm 3 m/s 753 mmHg 92%
    02:00 +13°C° 0 mm 3 m/s 754 mmHg 93%
    03:00 +12°C° 0 mm 3 m/s 754 mmHg 93%
    04:00 +12°C° 0 mm 3 m/s 754 mmHg 93%
    05:00 +12°C° 0 mm 3 m/s 754 mmHg 94%
    06:00 +14°C° 0 mm 4 m/s 755 mmHg 89%
    07:00 +15°C° 0 mm 4 m/s 755 mmHg 84%
    08:00 +18°C° 0 mm 4 m/s 756 mmHg 80%
    09:00 +19°C° 0 mm 4 m/s 756 mmHg 73%
    10:00 +21°C° 0 mm 4 m/s 756 mmHg 66%
    11:00 +22°C° 0 mm 5 m/s 756 mmHg 59%
    12:00 +22°C° 0 mm 5 m/s 756 mmHg 56%
    13:00 +23°C° 0 mm 4 m/s 757 mmHg 53%
    14:00 +23°C° 0 mm 4 m/s 757 mmHg 51%
    15:00 +23°C° 0 mm 4 m/s 757 mmHg 52%
    16:00 +22°C° 0 mm 4 m/s 757 mmHg 52%
    17:00 +22°C° 0 mm 4 m/s 757 mmHg 53%
    18:00 +20°C° 0 mm 3 m/s 757 mmHg 59%
    19:00 +18°C° 0 mm 3 m/s 757 mmHg 66%
    20:00 +16°C° 0 mm 2 m/s 757 mmHg 72%
    21:00 +15°C° 0 mm 2 m/s 758 mmHg 74%
    22:00 +14°C° 0 mm 2 m/s 758 mmHg 77%
    23:00 +13°C° 0 mm 2 m/s 759 mmHg 79%

    26 Mai, Samedi

    Heure Température Précipitation Vent Pression Humidité
    00:00 +12°C° 0 mm 2 m/s 759 mmHg 80%
    01:00 +12°C° 0 mm 2 m/s 759 mmHg 80%
    02:00 +10°C° 0 mm 3 m/s 760 mmHg 81%
    03:00 +10°C° 0 mm 3 m/s 760 mmHg 81%
    04:00 +10°C° 0 mm 3 m/s 760 mmHg 81%
    05:00 +10°C° 0 mm 3 m/s 761 mmHg 81%
    06:00 +12°C° 0 mm 3 m/s 761 mmHg 74%
    07:00 +14°C° 0 mm 3 m/s 761 mmHg 67%
    08:00 +17°C° 0 mm 3 m/s 761 mmHg 60%
    09:00 +18°C° 0 mm 3 m/s 761 mmHg 55%
    10:00 +19°C° 0 mm 3 m/s 761 mmHg 50%
    11:00 +20°C° 0 mm 4 m/s 762 mmHg 46%
    12:00 +21°C° 0 mm 4 m/s 761 mmHg 45%
    13:00 +21°C° 0 mm 4 m/s 761 mmHg 45%
    14:00 +22°C° 0 mm 4 m/s 761 mmHg 45%
    15:00 +21°C° 0 mm 4 m/s 761 mmHg 48%
    16:00 +21°C° 0 mm 4 m/s 760 mmHg 50%
    17:00 +21°C° 0 mm 4 m/s 760 mmHg 53%
    18:00 +19°C° 0 mm 3 m/s 760 mmHg 61%
    19:00 +17°C° 0 mm 3 m/s 760 mmHg 68%
    20:00 +16°C° 0 mm 2 m/s 760 mmHg 76%
    21:00 +15°C° 0 mm 2 m/s 760 mmHg 78%
    22:00 +13°C° 0 mm 2 m/s 760 mmHg 80%
    23:00 +12°C° 0 mm 2 m/s 760 mmHg 82%

    27 Mai, Dimanche

    Heure Température Précipitation Vent Pression Humidité
    00:00 +12°C° 0 mm 2 m/s 761 mmHg 82%
    01:00 +10°C° 0 mm 2 m/s 761 mmHg 83%
    02:00 +10°C° 0 mm 2 m/s 761 mmHg 83%
    03:00 +10°C° 0 mm 2 m/s 760 mmHg 83%
    04:00 +10°C° 0 mm 2 m/s 760 mmHg 83%
    05:00 +10°C° 0 mm 2 m/s 760 mmHg 83%
    06:00 +13°C° 0 mm 2 m/s 760 mmHg 76%
    07:00 +15°C° 0 mm 2 m/s 760 mmHg 70%
    08:00 +17°C° 0 mm 2 m/s 760 mmHg 63%
    09:00 +18°C° 0 mm 2 m/s 760 mmHg 57%
    10:00 +19°C° 0 mm 2 m/s 760 mmHg 52%
    11:00 +20°C° 0 mm 2 m/s 760 mmHg 46%
    12:00 +21°C° 0 mm 2 m/s 759 mmHg 45%
    13:00 +23°C° 0 mm 2 m/s 759 mmHg 43%
    14:00 +23°C° 0 mm 2 m/s 759 mmHg 41%
    15:00 +23°C° 0 mm 2 m/s 758 mmHg 43%
    16:00 +23°C° 0 mm 2 m/s 758 mmHg 44%
    17:00 +23°C° 0 mm 1 m/s 758 mmHg 45%
    18:00 +21°C° 0 mm 1 m/s 757 mmHg 53%
    19:00 +19°C° 0 mm 1 m/s 757 mmHg 60%
    20:00 +16°C° 0 mm 1 m/s 757 mmHg 67%
    21:00 +15°C° 0 mm 1 m/s 757 mmHg 70%
    22:00 +13°C° 0 mm 0 m/s 757 mmHg 73%
    23:00 +12°C° 0 mm 0 m/s 758 mmHg 76%

    28 Mai, Lundi

    Heure Température Précipitation Vent Pression Humidité
    00:00 +12°C° 0 mm 0 m/s 758 mmHg 77%
    01:00 +11°C° 0 mm 0 m/s 758 mmHg 78%
    02:00 +12°C° 0 mm 1 m/s 758 mmHg 79%
    03:00 +12°C° 0 mm 1 m/s 758 mmHg 80%
    04:00 +12°C° 0 mm 1 m/s 758 mmHg 80%
    05:00 +13°C° 0 mm 1 m/s 758 mmHg 80%
    06:00 +15°C° 0 mm 1 m/s 758 mmHg 74%
    07:00 +18°C° 0 mm 1 m/s 757 mmHg 68%
    08:00 +20°C° 0 mm 1 m/s 757 mmHg 62%
    09:00 +22°C° 0 mm 1 m/s 757 mmHg 57%
    10:00 +23°C° 0 mm 1 m/s 757 mmHg 53%
    11:00 +24°C° 0 mm 1 m/s 757 mmHg 48%
    12:00 +25°C° 0 mm 2 m/s 757 mmHg 47%
    13:00 +25°C° 0 mm 2 m/s 756 mmHg 46%
    14:00 +26°C° 0 mm 2 m/s 756 mmHg 45%
    15:00 +26°C° 0 mm 2 m/s 756 mmHg 47%
    16:00 +26°C° 0 mm 2 m/s 756 mmHg 50%
    17:00 +26°C° 0 mm 2 m/s 755 mmHg 53%
    18:00 +24°C° 0 mm 2 m/s 755 mmHg 60%
    19:00 +21°C° 0 mm 2 m/s 755 mmHg 67%
    20:00 +20°C° 0 mm 2 m/s 755 mmHg 74%
    21:00 +19°C° 0 mm 2 m/s 755 mmHg 75%
    22:00 +17°C° 0 mm 2 m/s 755 mmHg 77%
    23:00 +16°C° 0 mm 2 m/s 755 mmHg 78%
    Voir plus